Location: Warwick
(41.7000°N, 71.4170°W)
Time: 19:39:28
(UTC-05:00)

ISS - Visible Passes

Search period start: 16 December 2017 00:00
Search period end: 26 December 2017 00:00
Orbit: 402 x 406 km, 51.6° (Epoch: 17 December)

Date Brightness Start Highest point End Pass type
(mag) Time Alt. Az. Time Alt. Az. Time Alt. Az.
16 Dec -2.9 17:16:52 10° WNW 17:20:04 50° SW 17:23:15 10° SE visible
17 Dec -0.4 18:02:52 10° WSW 18:03:50 11° SW 18:04:49 10° SSW visible
18 Dec -0.9 17:09:14 10° W 17:11:47 21° SW 17:14:19 10° S visible
25 Dec -0.7 06:11:57 10° S 06:14:17 18° SE 06:16:37 10° E visible
